Regional Weather Roundup
Issued by NWS Upton, NY

Current Version | Previous Version | Graphics & Text | Print | Product List | Glossary Off
Versions: 1 2 3 4 5 6 7 8 9 10 11 12 13 14 15 16 17 18 19 20 21 22 23 24 25 26 27 28 29 30

000
ASUS41 KOKX 260405
RWROKX

REGIONAL WEATHER ROUNDUP
NATIONAL WEATHER SERVICE NEW YORK NY
1200 AM EDT FRI AUG 26 2016

NOTE: "FAIR" INDICATES FEW OR NO CLOUDS BELOW 12,000 FEET WITH NO
SIGNIFICANT WEATHER AND/OR OBSTRUCTIONS TO VISIBILITY.

NYZ071-072-176-178-NJZ106-104-260500-
NEW YORK CITY METRO AREA

CITY           SKY/WX    TMP DP  RH WIND       PRES   REMARKS
Central Park     N/A     81  72  74 MISG        N/A
LaGuardia APRT PTCLDY    81  71  71 SW7       29.99F
Kennedy INTL   PTCLDY    75  72  90 S8        30.01F
Newark/Liberty PTCLDY    79  71  76 SW9       30.00S
Bronx Bot Gard   N/A     79  68  69 W1        30.02R
Wall St Helipt CLEAR     79  72  78 W6        30.01S
Teterboro      CLEAR     77  70  79 S3        29.98F
$$

NYZ177-179-078>081-260500-
LONG ISLAND NEW YORK

CITY           SKY/WX    TMP DP  RH WIND       PRES   REMARKS
Farmingdale    CLEAR     75  70  84 SW7       30.01S
MacArthur/ISP  CLEAR     75  71  87 SW10      30.00S
Shirley        PTCLDY    75  71  87 S6        30.01F
Riverhead      NOT AVBL
Westhampton    MOCLDY    74  69  85 SW8       30.03F
Southampton      N/A     73  72  94 SW6       29.98S
Bridgehampton    N/A     73  70  88 S2        30.00F
East Hampton   FAIR      73  70  91 SW6       30.01F
Montauk          N/A     75  71  87 S8        30.02F
$$

NYZ052-065-067-260500-
HUDSON VALLEY

CITY           SKY/WX    TMP DP  RH WIND       PRES   REMARKS
White Plains   CLEAR     74  70  87 W3        30.00F
Newburgh       CLEAR     73  72  94 CALM      30.01F
Montgomery     CLEAR     70  68  93 CALM      30.00S
Poughkeepsie   MOCLDY    72  69  90 CALM      29.98F
Albany         PTCLDY    72  68  87 S7        29.96S
$$

NJZ001-105-106-008-010-013-015-019>022-104-260500-
NEW JERSEY

CITY           SKY/WX    TMP DP  RH WIND       PRES   REMARKS
Newark/Liberty PTCLDY    79  71  76 SW9       30.00S
Teterboro      CLEAR     77  70  79 S3        29.98F
Caldwell       CLEAR     76  71  85 CALM      30.00F
Morristown     FOG       70  70 100 CALM      30.00F VSB 1/4
Somerville     CLEAR     72  70  93 CALM      29.99S FOG
Linden         FAIR      78  69  74 CALM      30.01F
Sussex         CLEAR     70  70 100 CALM      30.01S FOG
Abdover          N/A     70  69  97 CALM      30.02F
Trenton        CLEAR     76  71  85 SW3       30.01S
Millville      CLEAR     74  71  91 SW3       30.04S
Atlantic City  CLEAR     75  68  78 SW8       30.03S
Wrightstown    CLEAR     72  69  90 S3        30.00S
Toms River     CLEAR     73  68  84 SW5       30.03S
Belmar         CLEAR     74  68  81 S7        30.03F
$$

PAZ047>061-062-071-260500-
EASTERN PENNSYLVANIA

CITY           SKY/WX    TMP DP  RH WIND       PRES   REMARKS
Philadelphia   CLEAR     79  70  74 SW10      30.02S
Allentown      CLEAR     73  69  87 CALM      30.01S
Scranton       CLEAR     74  71  91 CALM      30.00F
$$

CTZ002-004>006-009-010-012-RIZ004-006-007-MAZ004-011-015-260500-
SOUTHERN NEW ENGLAND
 IN CT

CITY           SKY/WX    TMP DP  RH WIND       PRES   REMARKS
Bradley INTL   PTCLDY    74  66  76 S7        29.99F
Hartford       CLEAR     75  68  78 CALM      29.98F
Danbury        CLEAR     71  69  93 CALM      30.01F
Wtrbury/Oxford   N/A     70  64  83 CALM      30.04S
Bridgeport     CLEAR     78  71  79 SW7       29.98F
Meriden        CLEAR     75  68  78 S6        29.98F
New Haven      PTCLDY    76  70  82 SW8       29.99F
Chester        FAIR      73  70  88 S6        30.00F
Groton         CLOUDY    75  71  87 S6        30.00F
Wilimantic     CLOUDY    74  69  85 S6        30.00F

 IN RI

CITY           SKY/WX    TMP DP  RH WIND       PRES   REMARKS
Providence     CLOUDY    74  67  78 S7        30.00F
Block Island   CLOUDY    74  70  87 SW13      30.02F
Westerly       CLOUDY    75  68  78 S9        30.02S
 IN MA

CITY           SKY/WX    TMP DP  RH WIND       PRES   REMARKS
Boston         CLOUDY    75  66  73 SW13      29.97F
Worcester      PTCLDY    69  64  84 SW9       30.01F
Westfield      CLEAR     71  66  84 S5        29.98F
Provincetown   CLEAR     71  67  87 S10       30.01F
Nantucket      CLEAR     70  68  93 S9        30.04F
$$

ANZ330-335-338-340-345-350-353-355-260500-
COASTAL MARINE OBSERVATIONS


STATION/POSITION TIME  SKY/WX   TEMP    WIND        PRES    VSBY  WAVE
                                AIR SEA DIR/SP/G                  HT/PER
                 (UTC)          (F)     (DEG/KT/KT) (MB)    (MI)  (FT/S)
NY HARB ENTRANCE 0350            75 72  210/ 10/ 12 1015.9          3/ 5
20S FIRE ISLAND  0250            77 74  220/ 17/ 23 1016.2          4/ 5
GREAT SOUTH BAY  0300            76 79  240/ 12/ 19   N/A
23 SSW MONTAUK P 0250            76 74  220/ 16/ 17 1017.1          4/ 5
15 E BARNEGAT LI 0300               75                N/A           3/ 4
HUDSON CANYON    0250            77 78              1017.4          3/ 4
KINGS POINT      0300            78 76              1015.7
EXECUTION ROCKS  0300            78     190/  8/ 10   N/A
CENTRAL LI SOUND 0300            76 75  210/ 12/ 16   N/A           2/ 3
EASTERN LI SOUND 0300            73 70  230/  8/ 10   N/A
ROBBINS REEF     0300            79     200/  5/  6 1015.5
$$


>>>>>>>>>>>>>>>>>>>>>>>>>>>> KEY <<<<<<<<<<<<<<<<<<<<<<<<<<<
>                                                          <
>     SKY/WX - Sky Condition/Present Weather               <
>     TMP    - Temperature in Fahrenheit                   <
>     DP     - Dew Point in Fahrenheit                     <
>     RH     - Relative Humidity in Percent                <
>     WIND   - Direction (from) and Speed in MPH           <
>     PRES   - Mean Sea Level Pressure (inches of Hg)      <
>     WCI    - Wind Chill Index                            <
>     VSB    - VISIBILITY IN MILES                         <
>     HX     - HEAT INDEX                                  <
>     TC     - TEMPERATURE IN CELSIUS                      <
>     VRB    - VARIABLE WIND DIRECTION                     <
>                                                          <
>>>>>>>>>>>>>>>>>>>>>>>>>>>> KEY <<<<<<<<<<<<<<<<<<<<<<<<<<<




USA.gov is the U.S. government's official web portal to all federal, state and local government web resources and services.